| time (UTC) | temp F | wind direction | speed knots | gust knots | rain 1hr in | rain 24hr in | rain mn in | humidity % | barometer mb |
| 20260510204547 | 63 | 360 | 7.8 | 12.2 | 0.00 | 0.28 | 0.28 | 51 | 1021.3 |
| 20260510203018 | 62 | 360 | 3.5 | 9.6 | 0.00 | 0.28 | 0.28 | 53 | 1021.5 |
| 20260510201514 | 61 | 360 | 5.2 | 9.6 | 0.00 | 0.28 | 0.28 | 53 | 1021.6 |
| 20260510200016 | 62 | 360 | 3.5 | 7.8 | 0.00 | 0.28 | 0.28 | 55 | 1021.5 |
| 20260510194507 | 60 | 360 | 7.8 | 13.0 | 0.00 | 0.28 | 0.28 | 55 | 1021.6 |
| 20260510193006 | 60 | 360 | 3.5 | 9.6 | 0.00 | 0.28 | 0.28 | 56 | 1021.7 |
| 20260510191505 | 59 | 360 | 6.1 | 9.6 | 0.00 | 0.28 | 0.28 | 57 | 1021.8 |
| 20260510190032 | 59 | 360 | 4.3 | 8.7 | 0.00 | 0.28 | 0.28 | 57 | 1022.0 |
| 20260510184530 | 59 | 360 | 3.5 | 11.3 | 0.00 | 0.28 | 0.28 | 62 | 1022.1 |
| 20260510183058 | 58 | 360 | 2.6 | 9.6 | 0.00 | 0.28 | 0.28 | 61 | 1022.1 |
| 20260510181559 | 58 | 360 | 2.6 | 9.6 | 0.00 | 0.28 | 0.28 | 61 | 1022.1 |
| 20260510180104 | 57 | 360 | 4.3 | 9.6 | 0.00 | 0.28 | 0.28 | 64 | 1021.9 |
| 20260510174548 | 56 | 360 | 5.2 | 8.7 | 0.00 | 0.28 | 0.28 | 69 | 1021.8 |
| 20260510173045 | 55 | 360 | 6.1 | 9.6 | 0.00 | 0.28 | 0.28 | 67 | 1021.9 |
| 20260510171542 | 55 | 360 | 4.3 | 8.7 | 0.00 | 0.28 | 0.28 | 74 | 1021.7 |
| 20260510170041 | 54 | 360 | 4.3 | 9.6 | 0.00 | 0.28 | 0.28 | 77 | 1021.4 |
| 20260510164539 | 53 | 360 | 5.2 | 9.6 | 0.00 | 0.28 | 0.28 | 80 | 1021.4 |
| 20260510163040 | 52 | 360 | 3.5 | 8.7 | 0.00 | 0.28 | 0.28 | 79 | 1021.2 |
| 20260510161533 | 52 | 98 | 4.3 | 9.6 | 0.00 | 0.28 | 0.28 | 81 | 1021.4 |
| 20260510160027 | 51 | 360 | 5.2 | 8.7 | 0.00 | 0.28 | 0.28 | 84 | 1021.3 |
| 20260510154527 | 51 | 360 | 4.3 | 8.7 | 0.00 | 0.28 | 0.28 | 87 | 1021.3 |
| 20260510153027 | 50 | 360 | 5.2 | 8.7 | 0.00 | 0.28 | 0.28 | 89 | 1021.1 |
| 20260510151523 | 50 | 360 | 3.5 | 5.2 | 0.00 | 0.28 | 0.28 | 90 | 1021.0 |
| 20260510144551 | 49 | 360 | 2.6 | 4.3 | 0.00 | 0.28 | 0.28 | 90 | 1020.9 |
| 20260510143058 | 49 | 360 | 1.7 | 5.2 | 0.00 | 0.28 | 0.28 | 90 | 1020.9 |
| 20260510141552 | 49 | 360 | 0.9 | 2.6 | 0.00 | 0.28 | 0.28 | 91 | 1020.8 |
| 20260510140046 | 49 | 360 | 0.0 | 3.5 | 0.00 | 0.28 | 0.28 | 91 | 1020.6 |
| 20260510134555 | 48 | 360 | 2.6 | 4.3 | 0.00 | 0.28 | 0.28 | 91 | 1020.3 |
| 20260510133042 | 48 | 360 | 2.6 | 5.2 | 0.00 | 0.28 | 0.28 | 91 | 1020.1 |
| 20260510131541 | 48 | 360 | 4.3 | 8.7 | 0.00 | 0.28 | 0.28 | 91 | 1020.2 |
| 20260510130040 | 48 | 360 | 5.2 | 9.6 | 0.00 | 0.28 | 0.28 | 92 | 1020.1 |
| 20260510124548 | 48 | 360 | 2.6 | 7.8 | 0.00 | 0.28 | 0.28 | 92 | 1019.7 |
| 20260510123035 | 47 | 360 | 0.9 | 3.5 | 0.00 | 0.28 | 0.28 | 91 | 1019.5 |
| 20260510121532 | 47 | 360 | 0.9 | 5.2 | 0.00 | 0.28 | 0.28 | 91 | 1019.1 |
| 20260510120031 | 47 | 360 | 3.5 | 7.8 | 0.00 | 0.28 | 0.28 | 91 | 1019.1 |
| 20260510114529 | 47 | 360 | 4.3 | 9.6 | 0.00 | 0.28 | 0.28 | 91 | 1018.5 |
| 20260510113026 | 47 | 360 | 4.3 | 9.6 | 0.02 | 0.28 | 0.28 | 91 | 1017.8 |
| 20260510111525 | 48 | 360 | 4.3 | 11.3 | 0.06 | 0.28 | 0.28 | 92 | 1017.5 |
| 20260510110023 | 48 | 360 | 5.2 | 9.6 | 0.09 | 0.28 | 0.28 | 92 | 1016.8 |
| 20260510104524 | 48 | 360 | 9.6 | 14.8 | 0.11 | 0.28 | 0.28 | 91 | 1015.5 |
| 20260510103019 | 49 | 360 | 5.2 | 11.3 | 0.08 | 0.25 | 0.25 | 91 | 1018.2 |
| 20260510101517 | 49 | 5 | 7.8 | 13.0 | 0.06 | 0.22 | 0.22 | 91 | 1018.6 |
| 20260510100016 | 49 | 355 | 7.8 | 14.8 | 0.03 | 0.19 | 0.19 | 91 | 1018.8 |
| 20260510100014 | 49 | 360 | 8.7 | 14.8 | 0.03 | 0.19 | 0.19 | 91 | 1018.8 |
| 20260510094515 | 49 | 360 | 9.6 | 13.0 | 0.01 | 0.17 | 0.17 | 90 | 1018.6 |
| 20260510093009 | 49 | 360 | 6.1 | 9.6 | 0.01 | 0.17 | 0.17 | 89 | 1017.8 |
| 20260510091505 | 49 | 360 | 4.3 | 8.7 | 0.00 | 0.16 | 0.16 | 89 | 1017.3 |
| 20260510090013 | 49 | 360 | 5.2 | 8.7 | 0.00 | 0.16 | 0.16 | 88 | 1017.0 |
| 20260510084504 | 49 | 360 | 4.3 | 7.8 | 0.00 | 0.16 | 0.16 | 88 | 1016.8 |
| 20260510083003 | 49 | 360 | 3.5 | 5.2 | 0.00 | 0.16 | 0.16 | 88 | 1016.4 |
| 20260510081625 | 49 | 360 | 2.6 | 5.2 | 0.00 | 0.16 | 0.16 | 88 | 1015.8 |
| 20260510080100 | 49 | 360 | 2.6 | 7.0 | 0.00 | 0.16 | 0.16 | 88 | 1015.3 |
| 20260510074559 | 49 | 104 | 5.2 | 13.0 | 0.01 | 0.16 | 0.16 | 88 | 1014.6 |
| 20260510073104 | 49 | 360 | 7.0 | 12.2 | 0.03 | 0.16 | 0.16 | 88 | 1014.8 |
| 20260510071557 | 49 | 360 | 8.7 | 15.6 | 0.15 | 0.16 | 0.16 | 89 | 1014.9 |
| 20260510070052 | 49 | 360 | 7.8 | 17.4 | 0.16 | 0.16 | 0.16 | 89 | 1015.0 |
| 20260510064556 | 49 | 360 | 8.7 | 16.5 | 0.15 | 0.15 | 0.15 | 88 | 1015.3 |
| 20260510063048 | 50 | 360 | 9.6 | 16.5 | 0.13 | 0.13 | 0.13 | 86 | 1016.8 |
| 20260510061545 | 51 | 360 | 7.8 | 12.2 | 0.01 | 0.01 | 0.01 | 83 | 1017.9 |
| 20260510060046 | 51 | 360 | 5.2 | 11.3 | 0.00 | 0.00 | 0.00 | 81 | 1017.5 |
| 20260510054536 | 52 | 360 | 9.6 | 23.5 | 0.00 | 0.00 | 0.00 | 78 | 1016.8 |
| 20260510053040 | 52 | 360 | 13.0 | 20.0 | 0.00 | 0.00 | 0.00 | 77 | 1015.8 |
| 20260510051605 | 52 | 360 | 10.4 | 22.6 | 0.00 | 0.00 | 0.00 | 76 | 1014.9 |
| 20260510050107 | 52 | 360 | 17.4 | 25.2 | 0.00 | 0.00 | 0.00 | 75 | 1013.7 |
| 20260510044602 | 52 | 360 | 14.8 | 24.3 | 0.00 | 0.00 | 0.00 | 72 | 1013.9 |
| 20260510043056 | 53 | 360 | 17.4 | 26.1 | 0.00 | 0.00 | 0.00 | 71 | 1013.8 |
| 20260510041548 | 53 | 360 | 14.8 | 26.1 | 0.00 | 0.00 | 0.00 | 68 | 1013.5 |
| 20260510040048 | 54 | 360 | 16.5 | 27.8 | 0.00 | 0.00 | 0.00 | 65 | 1013.3 |
| 20260510034544 | 60 | 360 | 19.1 | 28.7 | 0.00 | 0.00 | 0.00 | 54 | 1012.9 |
| 20260510033057 | 62 | 360 | 17.4 | 28.7 | 0.00 | 0.00 | 0.00 | 53 | 1012.9 |
| 20260510031541 | 61 | 360 | 2.6 | 5.2 | 0.00 | 0.00 | 0.00 | 55 | 1010.8 |
| 20260510030046 | 62 | 360 | 6.1 | 10.4 | 0.00 | 0.00 | 0.00 | 53 | 1009.3 |
| 20260510024638 | 63 | 360 | 5.2 | 10.4 | 0.00 | 0.00 | 0.00 | 52 | 1009.2 |
| 20260510023037 | 64 | 360 | 5.2 | 10.4 | 0.00 | 0.00 | 0.00 | 50 | 1008.9 |
| 20260510021536 | 65 | 360 | 7.0 | 12.2 | 0.00 | 0.00 | 0.00 | 47 | 1008.4 |
| 20260510020036 | 67 | 360 | 7.8 | 12.2 | 0.00 | 0.00 | 0.00 | 44 | 1008.3 |
| 20260510014539 | 68 | 360 | 8.7 | 12.2 | 0.00 | 0.00 | 0.00 | 43 | 1008.3 |
| 20260510013035 | 69 | 360 | 9.6 | 14.8 | 0.00 | 0.00 | 0.00 | 41 | 1008.1 |
| 20260510011533 | 70 | 104 | 7.0 | 12.2 | 0.00 | 0.00 | 0.00 | 38 | 1007.8 |
| 20260510010031 | 71 | 360 | 4.3 | 8.7 | 0.00 | 0.00 | 0.00 | 36 | 1007.5 |
| 20260510004531 | 72 | 360 | 7.0 | 10.4 | 0.00 | 0.00 | 0.00 | 34 | 1007.1 |
| 20260510003028 | 73 | 360 | 6.1 | 11.3 | 0.00 | 0.00 | 0.00 | 32 | 1007.4 |
| 20260510001527 | 75 | 360 | 5.2 | 12.2 | 0.00 | 0.00 | 0.00 | 31 | 1007.2 |
| 20260510000027 | 75 | 360 | 6.1 | 12.2 | 0.00 | 0.00 | 0.00 | 29 | 1006.7 |
| 20260509234535 | 77 | 360 | 7.8 | 16.5 | 0.00 | 0.00 | 0.00 | 28 | 1006.6 |
| 20260509233022 | 77 | 360 | 8.7 | 13.9 | 0.00 | 0.00 | 0.00 | 27 | 1006.3 |
| 20260509231523 | 77 | 360 | 10.4 | 14.8 | 0.00 | 0.00 | 0.00 | 25 | 1006.3 |
| 20260509230023 | 77 | 360 | 8.7 | 15.6 | 0.00 | 0.00 | 0.00 | 25 | 1006.2 |
| 20260509224519 | 77 | 360 | 10.4 | 17.4 | 0.00 | 0.00 | 0.00 | 27 | 1006.2 |
| 20260509223019 | 78 | 360 | 7.8 | 13.0 | 0.00 | 0.00 | 0.00 | 28 | 1006.3 |
| 20260509221518 | 78 | 360 | 6.1 | 13.9 | 0.00 | 0.00 | 0.00 | 27 | 1006.1 |
| 20260509220016 | 79 | 360 | 8.7 | 17.4 | 0.00 | 0.00 | 0.00 | 26 | 1006.4 |
| 20260509214616 | 79 | 360 | 11.3 | 18.2 | 0.00 | 0.00 | 0.00 | 26 | 1006.5 |
| 20260509213044 | 79 | 360 | 11.3 | 17.4 | 0.00 | 0.00 | 0.00 | 26 | 1006.6 |
| 20260509211542 | 80 | 360 | 11.3 | 16.5 | 0.00 | 0.00 | 0.00 | 26 | 1006.6 |
| 20260509210039 | 80 | 360 | 10.4 | 20.0 | 0.00 | 0.00 | 0.00 | 26 | 1006.6 |